{"data":{"norad_id":48957,"epoch":"2026-05-25T02:27:25.258752Z","epoch_age_seconds":59970,"freshness":"FRESH","line1":"1 48957U 21059CG  26145.10237568  .00037731  00000+0  34856-3 0  9999","line2":"2 48957  97.6754 342.5324 0005631  66.0434 294.1415 15.67470607274231","mean_motion":15.67470607,"eccentricity":0.0005631,"inclination_deg":97.6754,"raan_deg":342.5324,"arg_perigee_deg":66.0434,"mean_anomaly_deg":294.1415,"bstar":0.00034856,"rev_number":27423,"period_min":91.867751367666,"perigee_km":362.34496032223,"apogee_km":369.94036808005,"semimajor_km":6744.2796642011,"source":"CELESTRAK","updated_at":"2026-05-25T13:38:24.927479Z"}}